Wind_Speed
26 28 30 30 30 29 30 30 28 29 30 28 27 29 30 30 30 31 29 27 26 26 22 19 18 20 20 18 16 16 15 14 14 15 16 17 18 17 17 18 19 20 22 23 23 24 25 25 26 26 26 26 26 26 27 27 27 27 27 28 29 29 29 28 27 27 26 23 24 26 26 25 25 23 21 20 20 19 19 22 25 27 27 28 27 25 23
25 26 29 31 30 28 27 27 26 26 28 28 28 29 31 31 31 32 31 30 30 30 29 26 24 21 19 18 18 17 16 14 14 15 17 18 18 18 17 17 18 20 21 22 23 24 25 26 26 27 27 27 27 27 27 27 27 27 27 28 29 30 29 26 26 28 26 24 25 27 27 26 25 23 20 20 19 19 19 22 26 29 29 27 26 25 24
26 26 26 27 28 29 29 29 28 26 25 26 28 30 30 30 31 31 32 30 28 29 30 28 25 22 20 20 20 19 17 14 14 16 18 19 19 19 19 19 19 21 22 22 23 24 25 25 25 25 25 26 26 26 26 27 27 28 28 27 28 29 28 27 28 28 27 27 26 28 29 28 27 24 23 21 20 20 21 23 26 29 28 26 26 26 26
25 26 26 23 24 26 28 30 30 27 24 24 27 30 30 30 30 29 29 27 23 22 22 22 22 22 23 22 21 20 18 17 16 18 20 21 21 21 21 21 21 21 22 23 23 23 24 24 24 23 23 24 25 25 25 26 27 28 28 28 28 27 27 28 28 27 27 27 27 29 30 29 28 25 24 21 20 21 21 23 25 27 27 28 29 29 27
23 25 26 25 24 24 25 27 28 26 24 22 23 26 29 29 28 28 28 27 25 23 23 22 23 24 24 23 22 21 20 20 20 21 22 24 24 24 23 23 23 23 23 24 23 23 23 23 23 23 22 23 24 25 25 25 26 26 27 27 27 25 25 26 26 26 25 26 29 30 29 29 28 26 24 21 20 20 20 21 23 26 28 29 30 29 26
22 24 26 26 25 24 24 26 27 26 25 23 20 21 23 25 26 27 28 28 27 27 26 24 23 23 23 22 21 21 21 22 23 24 25 25 25 25 25 25 25 25 25 24 24 23 23 23 23 23 23 23 24 24 24 24 25 25 25 26 25 23 22 23 24 24 24 25 27 28 27 28 27 26 24 22 21 22 22 21 23 25 27 28 28 26 24
23 24 25 26 26 26 24 24 26 27 27 27 25 22 21 23 26 27 28 27 27 27 25 23 21 21 21 21 21 21 22 23 23 24 25 26 26 26 26 25 26 26 26 26 25 25 24 24 24 24 23 23 23 23 23 23 23 23 23 23 22 21 20 20 21 22 22 23 24 24 24 27 27 24 23 23 23 24 25 24 24 25 24 24 25 24 23
23 24 24 25 25 26 26 25 26 27 27 27 27 25 22 22 24 27 26 25 25 26 26 26 26 25 23 23 24 24 24 24 24 24 25 26 26 26 26 26 26 26 26 26 26 25 25 24 24 24 24 23 22 22 21 21 21 21 21 20 20 20 20 21 22 22 21 22 23 23 24 26 28 25 22 22 23 24 26 26 24 23 23 23 24 24 25
25 24 24 24 25 25 25 25 25 26 26 25 25 24 22 21 23 26 27 25 24 24 25 27 29 28 26 26 26 26 26 25 25 26 26 26 27 27 27 27 26 26 26 26 26 26 25 25 25 25 25 23 22 21 21 21 19 19 20 19 19 19 19 20 22 21 21 22 22 23 25 28 27 24 22 23 24 24 26 27 24 22 22 23 24 25 25
25 25 24 25 26 26 25 24 23 24 25 25 26 25 23 22 22 24 27 27 26 25 23 23 25 27 27 27 27 27 27 26 26 26 27 27 27 28 28 27 27 28 27 27 26 26 26 26 26 26 26 24 23 21 21 21 20 19 19 17 15 16 18 22 25 24 23 24 25 25 27 28 27 25 24 25 25 26 27 26 24 23 23 23 24 24 25
24 24 24 24 25 25 24 24 23 22 23 24 26 27 26 25 24 23 25 26 26 26 24 23 23 24 26 27 28 28 28 27 27 27 27 28 28 29 29 28 28 29 29 28 27 26 26 26 26 27 26 26 24 23 22 22 21 20 19 17 13 11 12 18 26 30 29 27 28 28 28 28 27 26 25 25 27 29 29 27 25 23 23 23 24 25 25
23 24 23 21 21 21 21 20 21 21 21 21 23 25 25 25 24 22 22 23 24 24 24 24 23 24 24 25 27 28 29 29 28 28 28 29 29 30 30 30 30 30 30 30 29 27 26 26 27 27 27 26 25 25 23 22 21 21 21 20 17 13 9 10 18 27 30 29 28 28 28 28 26 26 26 26 28 32 34 32 28 24 24 25 26 27 28
23 24 23 22 21 20 18 18 18 18 17 17 18 20 21 21 21 20 19 20 20 21 21 22 23 23 23 23 24 25 27 28 29 29 30 30 31 31 31 31 31 31 31 31 31 30 28 27 27 27 27 25 25 24 24 23 21 22 23 22 20 17 14 11 11 16 21 26 29 30 29 28 27 28 29 28 29 32 35 35 31 27 27 29 30 31 32
21 22 23 23 22 21 20 19 18 16 15 16 16 17 17 17 16 16 17 18 18 18 18 19 19 19 20 21 22 23 25 26 27 29 30 31 32 32 31 32 32 32 32 32 32 32 30 28 28 28 28 26 25 24 25 24 22 22 23 23 21 19 17 15 13 13 15 19 25 29 30 29 29 30 31 31 32 34 35 35 33 32 33 34 34 35 36
21 21 22 23 22 21 21 21 20 16 16 17 16 15 15 15 15 15 16 17 17 17 17 17 17 17 18 19 21 22 24 25 26 28 29 31 32 32 32 32 32 33 33 33 33 33 32 30 30 30 29 28 27 26 26 26 24 23 23 23 22 21 19 17 16 15 16 17 19 23 27 30 32 34 35 35 35 37 37 36 35 35 35 34 33 34 34
20 20 21 22 21 20 20 22 22 19 17 17 17 16 15 15 15 16 17 17 17 17 17 17 17 18 18 19 20 21 22 23 24 26 28 30 31 32 33 33 34 34 34 34 34 34 34 33 32 31 31 31 29 28 27 27 26 25 25 24 23 22 21 20 19 18 17 17 16 17 20 23 26 31 35 37 37 37 37 37 36 36 36 34 32 31 31
18 18 18 20 20 20 20 21 20 18 16 16 16 16 16 16 17 17 17 18 18 18 18 18 18 19 19 20 20 21 22 23 24 25 27 28 30 31 32 33 34 35 35 35 35 35 35 35 34 33 32 32 31 30 29 28 27 26 25 25 24 22 21 20 20 19 19 17 16 16 17 17 18 21 26 30 33 34 34 35 36 36 34 32 30 28 27
14 14 15 17 19 20 19 17 14 13 13 13 13 14 14 14 15 15 16 16 17 18 19 19 19 20 20 21 21 21 22 23 24 25 26 27 28 29 31 32 34 34 34 35 35 35 36 36 35 34 33 32 31 30 29 27 25 24 23 23 23 22 21 19 19 20 21 21 20 18 17 17 17 18 21 25 28 30 31 32 32 30 29 29 28 27 27
11 12 14 16 17 18 16 12 10 8 8 8 8 9 9 10 11 11 12 13 15 16 17 19 20 21 21 22 22 23 24 24 25 26 27 28 29 30 30 32 33 33 33 34 35 35 36 36 35 35 34 33 31 29 27 24 21 20 22 22 22 22 21 21 20 19 19 20 22 20 18 18 20 21 22 24 27 29 30 31 31 29 29 29 28 28 29
12 13 15 16 15 14 11 8 6 6 5 5 6 6 7 8 10 11 12 13 15 16 17 19 20 21 22 23 24 25 26 26 27 28 29 30 31 31 31 32 32 33 33 33 34 34 34 34 34 33 33 32 31 28 24 20 19 21 24 24 23 23 23 22 22 21 19 20 23 24 23 23 24 26 27 28 29 31 32 32 32 32 30 30 30 30 30
11 12 12 13 12 9 8 6 5 4 4 4 5 6 7 9 10 12 14 16 17 19 21 22 23 23 24 25 26 26 27 28 29 30 30 31 32 32 33 33 33 34 34 33 33 33 33 32 31 31 29 27 27 26 23 19 20 25 28 27 27 27 28 27 26 25 23 23 25 29 30 30 30 31 32 32 33 34 34 33 33 33 32 31 32 32 32
10 10 10 10 9 7 6 4 4 3 3 4 4 5 7 8 10 12 14 16 18 20 22 25 26 28 29 29 30 30 31 31 31 32 32 33 33 33 34 34 34 35 35 35 35 35 34 33 32 31 29 26 24 24 24 24 25 29 32 32 31 31 32 32 30 29 27 26 26 30 34 37 37 37 36 36 36 37 37 36 35 34 34 33 33 32 33
9 9 9 8 7 6 4 3 2 1 2 3 4 6 7 8 10 12 14 16 18 20 22 24 26 29 31 33 34 35 35 36 36 35 35 35 35 35 35 35 35 35 36 37 38 38 38 37 36 34 33 30 27 27 29 32 32 33 34 35 35 33 32 31 31 32 32 31 30 30 33 36 38 40 40 39 39 40 41 40 38 37 36 35 34 34 35
9 9 9 8 7 5 4 2 0 1 2 3 4 6 7 9 11 13 15 18 20 22 23 24 24 26 29 31 34 36 38 39 40 40 39 39 38 38 37 37 36 36 37 37 38 38 39 39 38 37 36 35 33 32 34 37 38 37 35 34 34 34 32 31 32 35 36 36 35 35 35 36 39 42 43 44 44 44 43 43 41 39 38 37 37 37 37
10 9 7 6 5 3 2 0 1 3 4 5 6 7 9 11 13 15 16 19 21 23 24 25 25 24 25 27 29 32 34 36 39 40 41 41 41 40 40 39 39 38 38 37 37 37 37 37 38 38 38 38 37 36 36 38 41 41 39 36 34 34 34 35 36 38 39 39 39 39 38 39 40 41 43 44 45 44 43 42 41 40 40 40 40 40 39
8 6 5 4 3 2 2 3 4 6 7 8 9 10 11 13 14 16 17 19 21 24 25 26 26 25 24 24 25 27 28 30 32 34 37 39 40 40 40 39 39 39 39 39 39 38 38 38 37 37 37 38 38 38 36 36 38 40 42 42 39 37 36 37 38 39 41 41 42 42 42 42 41 41 42 43 43 44 43 42 42 41 42 41 41 40 39
6 5 4 4 3 4 5 6 7 8 9 10 12 12 14 15 16 17 19 21 23 25 26 27 27 25 24 24 24 24 25 26 27 28 30 33 36 38 39 39 39 39 39 39 40 40 41 40 39 38 37 37 37 38 37 37 36 37 39 41 42 41 40 39 39 40 40 41 41 42 43 44 44 43 42 42 43 44 44 43 43 42 41 40 39 37 36
5 5 4 5 5 6 7 7 8 9 10 11 12 13 15 16 17 18 19 21 23 25 26 27 27 25 24 23 23 23 23 24 25 25 25 26 29 33 35 37 38 38 38 38 39 40 41 41 42 41 40 39 38 38 38 38 37 36 36 36 37 39 40 40 40 41 41 41 41 41 42 43 43 43 42 41 40 40 40 40 39 38 37 36 35 35 35
5 5 6 6 7 7 8 8 9 9 10 12 13 14 15 16 17 18 19 20 22 24 26 27 27 26 24 23 22 21 21 21 22 23 23 24 24 26 29 32 34 36 37 38 39 39 39 40 41 42 42 42 42 42 41 41 40 39 37 35 35 35 36 37 37 38 39 39 40 40 40 41 41 41 41 40 39 38 37 37 36 36 35 35 36 36 36
6 6 6 7 7 8 8 9 11 12 13 14 16 17 17 18 19 20 20 21 22 23 24 25 26 25 24 23 22 21 20 20 20 21 22 22 22 23 24 26 28 30 33 35 36 38 39 40 41 42 42 43 43 43 43 43 43 43 42 40 38 37 37 37 36 37 37 37 37 37 38 38 38 39 39 39 38 38 37 37 37 36 37 37 38 38 37
6 7 7 7 7 8 9 10 12 13 14 15 17 18 18 19 20 20 21 21 22 22 23 25 25 25 24 23 22 21 21 20 20 20 21 21 21 22 22 23 24 26 27 29 31 33 35 38 39 40 42 43 43 43 43 43 43 44 44 44 43 42 41 40 40 39 39 38 38 37 37 37 37 37 37 37 37 38 38 38 38 38 38 38 39 39 39
8 8 8 8 9 9 10 11 12 13 14 15 16 17 18 19 20 21 21 22 22 22 23 24 24 25 25 24 23 22 21 21 20 20 20 20 20 21 21 21 22 22 23 24 26 27 29 31 33 36 38 41 43 43 43 42 43 43 43 43 43 43 42 42 41 41 41 39 39 38 38 37 37 37 37 37 37 37 38 38 38 38 38 38 38 39 39
9 9 9 9 9 10 10 11 12 12 13 14 15 16 17 18 19 20 21 22 22 23 23 24 24 25 25 24 24 23 22 21 21 22 21 21 20 20 20 20 20 21 21 21 22 24 24 25 26 28 31 34 38 40 42 42 42 42 42 42 42 42 42 42 41 41 40 39 38 39 39 38 38 37 37 36 36 36 36 36 36 37 38 37 37 37 37
9 10 10 10 10 10 11 11 12 12 13 14 15 16 17 18 19 20 21 21 22 22 23 24 24 25 25 25 25 24 23 22 22 22 23 22 22 21 21 20 20 20 20 20 21 21 22 22 22 23 24 25 29 33 36 38 40 40 40 41 41 41 41 42 42 41 40 39 39 39 39 39 38 37 37 36 36 36 36 36 36 36 36 36 36 36 35
10 10 11 11 11 11 11 11 12 13 13 14 15 15 16 17 19 20 20 21 22 22 23 24 24 25 25 25 25 25 24 23 23 23 23 23 23 22 22 22 21 21 21 21 21 21 21 21 21 21 21 21 22 23 27 30 33 35 36 37 38 39 39 40 41 41 41 40 40 40 39 39 39 38 38 37 37 37 36 36 36 35 35 35 36 36 35
10 11 11 11 11 11 11 11 12 13 14 15 15 16 16 17 18 19 20 21 21 21 22 23 24 25 25 25 26 26 25 25 24 23 23 23 23 23 23 23 23 22 21 21 21 21 20 20 21 21 21 20 20 20 20 22 25 28 30 31 33 34 35 36 37 38 38 39 39 39 40 39 39 38 38 37 36 36 36 36 35 35 35 36 36 35 35
10 10 10 10 10 11 11 12 13 14 14 15 15 16 17 17 18 19 20 21 21 21 22 23 24 25 26 26 26 26 26 26 26 25 24 24 24 24 24 23 24 23 22 21 21 22 21 20 20 20 20 20 20 20 20 20 20 22 25 27 29 30 31 32 33 33 34 35 36 37 37 37 37 37 37 37 36 36 36 36 35 35 35 36 36 35 35
9 9 8 9 10 11 11 12 13 14 15 16 16 17 17 18 19 20 20 21 21 22 22 23 24 25 26 27 27 27 27 27 26 26 25 25 24 24 24 23 23 23 22 21 21 21 21 21 20 20 20 20 20 20 20 20 20 20 21 24 26 28 28 29 29 29 30 32 34 35 35 35 35 35 35 35 35 35 36 35 35 34 34 34 33 33 32
8 8 8 8 10 11 12 13 14 15 16 16 17 17 18 19 19 19 20 21 21 22 22 23 23 24 25 26 26 26 27 27 27 27 27 26 26 25 24 23 22 23 22 21 20 20 20 20 20 20 20 20 20 20 19 20 21 21 21 22 23 25 26 27 27 27 27 28 30 32 33 33 33 34 34 34 34 34 34 34 33 33 32 31 31 30 29
6 7 8 9 10 12 13 14 15 16 16 17 17 18 19 19 20 20 20 20 21 22 22 23 24 24 24 25 26 26 26 27 27 27 28 28 27 26 25 23 22 22 22 20 19 18 18 19 20 20 20 20 20 20 19 19 20 21 22 22 22 22 23 25 26 26 26 26 27 29 29 30 31 31 31 32 32 32 32 32 31 31 30 29 28 28 27
6 7 9 10 11 12 13 14 15 16 16 17 18 18 19 19 20 20 20 20 21 21 22 23 24 25 25 26 27 27 27 27 27 27 28 28 28 28 26 23 22 22 22 22 21 20 20 21 22 23 21 20 20 20 20 20 20 20 21 21 21 21 22 23 24 25 24 24 25 26 27 27 28 28 28 29 29 29 29 29 28 28 27 27 26 26 25
7 8 9 10 11 12 13 14 15 16 17 18 18 18 19 19 19 20 20 20 21 21 22 23 24 25 26 27 27 28 28 28 28 27 27 27 27 27 26 25 23 22 22 23 23 22 22 23 25 26 25 23 21 20 20 20 20 20 20 20 20 20 21 22 24 24 24 24 23 24 24 25 25 25 26 26 26 26 26 26 26 25 25 25 25 24 24
7 8 9 10 11 12 13 14 15 16 17 18 18 18 19 19 19 19 20 20 21 21 22 23 24 25 26 26 27 28 29 29 29 28 28 27 27 27 26 25 23 23 23 23 23 23 24 24 25 25 25 24 23 21 21 20 20 20 19 20 20 19 19 20 21 22 23 23 23 23 23 23 23 24 24 24 24 24 24 24 24 24 23 23 23 22 22
7 8 9 10 11 12 13 14 15 16 17 18 18 18 19 19 19 19 20 20 21 22 23 23 24 25 26 27 27 28 28 29 29 29 29 28 28 28 28 26 24 24 24 25 24 23 24 24 24 24 24 23 22 21 20 20 20 19 19 19 19 19 18 18 19 20 22 22 22 22 22 21 21 22 22 23 23 23 23 23 23 22 22 21 21 21 21
7 8 9 10 11 13 14 14 15 16 17 18 18 18 18 18 19 19 20 21 22 22 23 24 25 25 26 27 28 28 28 28 29 29 29 29 28 29 29 28 26 25 25 26 25 23 23 23 23 23 23 22 22 21 20 19 19 18 18 17 17 17 17 17 18 19 20 21 21 21 21 20 20 20 21 22 22 22 22 22 21 21 21 21 21 21 21
8 9 10 11 12 13 14 15 16 17 17 18 18 18 19 19 20 20 21 22 22 23 24 25 25 26 26 27 27 28 28 28 28 29 29 29 29 29 29 28 27 25 25 25 25 24 23 22 22 21 21 20 20 19 18 18 17 17 17 16 16 16 16 16 16 17 19 19 20 20 19 19 19 19 19 20 20 20 21 21 21 20 20 21 21 21 22
9 10 11 12 13 14 15 15 16 17 17 18 18 19 19 20 21 22 22 23 24 24 25 25 26 26 26 27 27 28 28 28 28 28 29 29 29 29 29 27 26 25 25 25 25 25 24 22 21 19 18 18 17 17 17 16 16 16 16 16 16 15 15 15 15 16 17 18 18 18 18 19 19 19 18 18 19 19 19 20 20 21 21 22 22 22 23
10 11 11 12 13 14 15 15 16 17 18 18 19 20 21 22 22 23 24 25 25 26 26 26 26 26 27 27 28 28 28 27 28 28 29 29 29 29 29 27 27 27 28 27 26 24 24 23 21 19 17 16 16 16 16 16 16 15 16 16 16 15 14 14 14 15 16 17 18 18 18 18 18 18 17 18 18 19 19 20 21 22 22 23 23 23 23
11 11 12 12 13 14 15 15 16 17 18 19 20 22 23 24 24 25 25 26 27 27 27 27 27 27 27 28 28 28 28 28 28 28 29 29 29 30 29 28 27 28 29 28 26 24 23 23 21 20 19 17 16 16 16 16 16 16 15 15 15 15 15 14 14 14 15 16 17 17 18 18 18 17 17 18 18 19 20 21 23 23 24 24 24 24 24
12 12 12 12 14 14 15 15 17 18 20 21 22 23 24 25 25 26 26 27 28 28 28 27 27 27 28 28 28 29 29 29 29 29 29 29 29 30 29 28 28 28 28 27 25 24 23 22 21 20 20 19 18 16 16 16 16 16 16 15 14 14 14 14 14 14 14 15 15 16 17 17 17 16 17 18 19 20 21 22 23 24 25 25 25 24 24
12 12 12 12 13 14 15 16 17 19 21 23 24 24 25 26 26 26 27 28 28 28 28 28 28 27 27 28 29 29 29 29 29 29 29 29 29 30 30 30 29 28 27 25 24 24 24 24 22 20 19 20 20 18 17 17 17 17 17 16 16 15 14 14 14 13 14 14 14 15 17 17 16 16 17 18 19 20 21 22 22 23 25 25 25 24 23
12 12 12 12 13 14 15 17 19 21 22 23 25 25 26 26 26 26 27 28 29 29 29 29 29 28 27 28 29 29 29 29 29 30 30 29 30 30 30 30 30 29 27 27 27 28 28 26 23 20 18 19 20 20 19 19 18 18 17 17 17 17 16 16 15 14 14 13 13 15 16 17 17 17 18 19 19 20 22 23 23 24 24 25 25 24 23
Wind_Direction
224 223 225 228 230 231 233 238 238 232 231 234 234 232 235 240 245 248 250 254 259 261 262 265 267 265 265 264 261 262 263 261 260 257 256 257 260 262 263 265 265 265 266 266 264 263 262 263 264 266 267 269 269 270 273 274 274 273 271 269 269 270 271 270 268 263 260 258 252 239 229 226 230 232 233 234 236 237 237 235 231 228 227 230 234 238 242
229 228 230 233 234 235 234 237 240 237 234 237 239 236 235 239 243 246 249 254 257 257 257 262 267 265 259 255 255 258 261 259 255 252 253 256 258 263 266 268 271 271 271 271 270 270 269 268 268 268 268 269 270 272 273 274 274 272 270 268 268 270 270 268 266 261 255 254 246 232 229 229 223 227 240 245 243 242 238 236 233 230 230 232 234 237 240
231 231 234 238 240 241 239 238 242 243 242 243 245 243 240 240 242 243 248 254 258 258 257 258 259 256 253 253 254 255 255 256 253 251 253 255 257 261 265 268 271 273 275 277 276 275 274 273 273 273 272 272 271 271 270 270 270 269 268 267 266 270 273 270 267 262 258 256 244 230 229 225 217 228 247 249 249 250 246 242 235 227 226 227 229 235 239
233 233 235 239 242 243 241 241 243 245 246 248 248 245 242 242 243 245 248 252 256 260 256 252 250 250 251 251 252 251 250 250 251 251 252 255 257 259 261 263 267 270 274 277 278 278 278 278 278 277 275 274 272 271 269 268 269 268 267 266 265 268 272 271 268 263 258 250 233 224 227 222 217 233 248 247 251 255 250 243 232 223 224 225 227 234 239
236 237 237 238 241 244 242 242 242 240 242 246 247 244 240 240 243 247 248 250 255 260 258 253 250 249 250 251 250 248 245 244 247 249 250 251 253 255 257 259 262 265 270 274 277 279 279 279 280 279 278 278 277 276 275 273 273 271 268 267 267 266 266 268 269 262 249 234 220 219 223 221 223 238 247 248 253 249 238 234 230 224 223 225 228 235 238
237 239 239 239 242 245 246 244 242 239 241 245 247 247 244 242 244 247 249 252 256 258 257 255 251 249 249 249 246 245 244 243 244 245 247 248 250 252 254 255 257 260 264 268 272 275 276 277 279 279 280 281 281 282 281 279 278 276 271 268 266 263 259 260 262 251 232 218 216 219 222 222 228 239 245 248 250 239 226 222 223 220 219 223 229 234 234
238 239 240 240 241 244 247 248 245 243 244 246 250 254 253 248 246 248 250 251 253 253 252 250 248 247 247 245 243 245 247 246 244 244 246 247 248 250 252 253 255 257 260 264 267 270 272 274 276 278 279 281 282 283 283 283 284 282 276 268 261 257 250 247 249 243 230 220 219 219 221 225 229 237 245 247 241 229 218 210 211 214 218 224 229 230 230
240 241 241 242 243 246 249 250 249 248 248 249 251 254 254 250 247 247 249 250 250 251 251 250 249 248 247 247 247 249 250 248 245 244 245 247 248 250 251 253 255 257 260 263 266 268 270 271 272 275 277 278 281 282 281 283 284 282 277 269 261 254 245 237 237 238 233 229 225 220 219 225 231 237 241 234 222 212 206 205 212 219 222 225 227 227 229
243 243 243 243 245 248 251 252 252 251 250 250 248 249 251 250 245 244 247 249 250 251 251 250 249 247 247 248 249 250 250 249 246 245 246 248 249 251 252 254 257 259 261 264 267 269 270 270 271 272 274 276 279 281 281 282 282 279 274 268 262 254 241 230 229 233 233 231 228 224 224 228 235 238 231 221 214 208 204 208 218 226 229 230 231 231 232
246 247 246 245 246 248 251 253 253 252 252 250 247 247 250 252 249 245 246 249 251 253 252 250 248 247 246 247 247 248 250 249 247 247 247 249 251 252 253 255 258 260 261 263 266 268 270 271 272 272 273 275 277 280 282 283 285 283 274 266 259 250 236 227 225 226 231 233 232 231 232 234 236 234 226 222 221 217 213 216 225 234 236 234 233 233 235
246 248 248 247 247 248 249 251 251 250 249 249 248 248 251 254 254 251 248 249 252 253 253 252 250 248 248 248 248 248 248 248 248 249 249 249 251 252 253 255 257 259 261 262 264 266 269 270 272 272 273 274 275 276 278 281 285 286 278 269 264 256 247 239 228 219 216 222 228 231 233 234 234 231 226 223 220 217 218 224 232 237 237 236 236 238 240
245 245 246 245 243 244 246 251 254 254 252 250 249 248 248 250 251 251 249 249 252 254 254 253 251 249 248 248 248 247 245 246 247 249 249 249 250 251 253 255 256 258 260 261 263 265 266 268 270 272 273 274 274 274 275 276 279 282 281 277 274 272 277 271 243 223 214 213 219 227 231 231 230 227 223 221 218 215 219 226 231 235 239 242 242 240 241
247 245 244 243 242 243 247 251 253 252 250 245 240 239 241 242 243 245 247 249 250 252 254 254 254 252 250 248 247 245 243 244 246 247 248 249 249 251 253 255 257 258 259 260 262 264 265 266 268 271 272 273 273 274 275 275 274 277 278 279 280 278 277 279 263 238 224 219 220 226 232 231 227 224 222 222 221 221 225 228 231 237 244 246 244 242 242
249 247 243 242 241 240 240 243 245 243 240 237 232 230 233 235 236 241 247 249 248 248 248 250 252 252 251 250 248 245 245 246 248 250 250 249 248 250 252 254 257 258 259 260 261 263 264 264 264 266 269 271 271 272 274 276 274 272 272 274 278 279 276 273 266 253 243 237 232 231 234 233 229 226 225 224 223 226 230 232 234 240 243 242 239 238 239
250 248 243 241 241 238 234 237 242 244 242 240 237 236 237 238 238 239 242 245 246 245 245 247 248 248 248 248 247 246 247 248 250 252 251 250 249 250 252 254 256 257 259 261 262 264 265 264 263 264 266 268 268 268 272 277 278 274 272 272 271 270 268 266 263 254 247 243 240 238 238 238 235 232 230 229 227 228 231 233 236 242 244 241 237 235 238
245 244 240 237 235 232 231 235 238 238 236 235 234 237 240 241 241 240 241 245 247 248 248 250 251 251 252 252 251 250 249 248 248 249 249 249 250 251 253 255 257 258 259 260 261 263 265 264 263 263 265 266 267 268 269 274 277 277 275 274 272 269 264 260 259 256 248 239 238 244 247 244 242 241 238 234 232 232 235 237 240 245 248 246 241 238 238
236 233 230 229 226 226 231 235 230 223 222 227 231 236 240 243 246 248 249 250 251 252 252 253 254 254 255 256 257 257 255 253 251 250 249 250 251 253 255 257 258 259 260 261 262 263 263 263 262 262 264 266 269 270 271 273 274 274 273 272 271 270 268 264 260 256 252 246 246 255 259 256 254 252 246 238 234 234 237 239 240 241 240 236 232 233 237
226 219 217 217 218 222 226 222 209 203 212 224 231 238 243 247 252 255 257 257 258 258 259 259 260 260 259 258 258 258 258 258 256 254 253 252 253 255 257 259 260 261 261 262 263 263 263 263 262 262 262 264 267 270 272 275 275 270 265 265 265 265 266 265 259 254 254 257 259 262 264 264 263 261 257 249 243 239 238 239 240 238 232 226 224 228 235
211 210 205 199 198 203 204 194 182 187 204 219 230 241 249 254 258 262 264 266 266 266 266 266 266 266 265 264 262 259 257 257 256 256 256 257 258 259 260 261 261 261 262 262 262 263 264 264 263 263 263 263 265 267 270 275 275 265 255 253 254 255 257 257 253 248 247 254 259 261 259 257 254 252 250 248 244 242 243 245 247 247 243 239 237 238 239
192 197 198 190 185 186 183 174 175 186 198 217 235 249 258 264 269 271 272 273 273 272 271 270 269 269 269 268 267 266 263 260 258 256 257 259 261 262 263 263 263 263 263 262 262 262 263 263 264 264 264 264 264 264 265 267 266 258 251 249 249 250 251 253 253 250 243 243 249 253 252 248 245 247 249 248 247 248 251 253 254 254 251 249 247 246 245
166 170 174 171 164 160 159 161 172 188 208 231 247 258 266 271 275 277 277 277 276 275 273 271 269 269 268 267 267 268 268 267 266 264 262 261 261 261 261 261 262 263 264 264 262 261 261 261 262 264 265 265 263 262 261 258 252 248 247 247 249 252 253 252 252 253 248 241 240 244 247 246 245 248 253 254 254 255 257 257 257 256 253 250 250 252 253
137 136 136 138 137 135 142 159 180 204 226 246 261 273 280 284 289 293 294 293 290 286 283 279 275 272 269 266 265 265 265 265 266 266 266 266 265 264 262 261 260 260 261 261 261 261 261 261 261 262 264 262 258 256 256 253 248 247 249 252 254 256 256 254 253 254 253 247 241 241 243 242 242 244 247 250 252 254 256 257 256 255 254 253 253 255 257
118 121 117 118 119 122 132 148 173 233 281 304 311 313 315 318 319 319 319 318 313 307 301 294 286 281 275 271 267 266 264 263 262 262 262 263 264 265 265 264 262 260 258 258 258 259 260 261 260 260 260 258 254 250 250 249 247 246 249 253 256 257 256 254 252 252 251 248 244 243 243 243 242 242 244 245 244 245 248 252 254 254 253 253 254 255 256
103 103 103 104 107 111 117 122 130 291 300 303 303 307 311 313 316 320 325 327 328 325 320 313 303 293 285 279 273 268 265 263 262 261 261 260 259 259 260 261 261 261 260 259 258 258 257 258 258 257 256 254 252 249 247 247 246 245 243 245 247 248 248 247 247 247 246 243 241 239 239 239 240 240 241 240 238 238 240 245 249 251 250 250 250 251 251
104 102 101 105 106 104 102 346 280 279 280 283 287 293 297 300 306 314 321 326 329 331 330 326 319 309 299 291 283 276 271 267 264 262 261 261 260 258 257 257 257 257 257 257 257 256 255 254 253 253 253 252 252 250 247 247 248 247 245 242 241 240 240 240 242 243 244 244 243 241 238 236 235 235 235 235 235 235 236 239 242 245 246 246 247 247 248
98 96 90 84 72 38 357 337 326 319 318 318 316 314 312 311 313 316 319 323 327 331 334 334 329 321 312 304 296 289 283 278 272 267 264 263 262 261 260 258 257 256 255 254 254 254 253 252 251 250 250 250 250 249 246 245 246 247 247 247 247 246 244 242 241 242 243 244 245 245 245 244 242 240 238 237 236 238 240 241 243 246 248 250 251 252 253
82 75 63 48 27 4 353 347 342 339 338 337 336 335 332 331 329 328 329 330 333 337 339 340 337 332 324 316 308 300 294 289 285 279 272 268 265 263 262 261 261 260 259 256 255 253 253 253 252 250 249 248 247 246 244 243 244 245 247 248 250 251 251 249 247 246 247 246 246 246 246 247 248 249 248 246 245 245 247 248 251 253 256 257 258 258 259
46 36 25 16 9 0 354 348 344 342 341 341 341 342 341 339 336 334 334 336 337 339 341 343 342 339 333 327 320 311 303 296 292 287 283 277 271 266 264 262 261 261 262 261 260 258 257 256 256 254 252 250 249 248 246 245 245 245 245 246 248 250 251 250 249 249 249 249 249 248 248 248 249 251 253 254 253 253 255 256 258 260 262 263 264 264 264
15 5 359 357 355 351 346 341 339 340 341 343 345 345 344 342 340 338 337 337 338 340 342 344 345 344 340 336 331 324 315 305 297 292 288 285 280 276 271 267 264 262 261 262 262 261 261 260 260 259 258 256 255 254 253 252 251 250 249 249 249 249 249 249 248 248 249 249 249 249 250 250 251 252 255 256 257 258 260 262 263 265 267 268 269 269 270
357 350 348 346 343 340 340 340 342 346 348 348 349 348 347 345 343 341 339 338 339 341 342 344 346 347 344 341 338 335 330 322 311 303 297 292 288 285 281 277 273 269 265 263 262 261 261 261 261 261 262 261 260 260 260 260 259 257 257 257 256 255 255 254 253 254 254 253 253 254 255 256 256 257 258 259 261 263 265 267 268 270 271 272 273 274 275
347 343 340 339 338 340 345 347 349 350 350 349 348 347 345 344 342 341 339 338 340 342 343 344 346 348 347 345 343 341 339 335 328 318 310 304 298 294 290 286 283 279 275 272 268 265 263 261 260 261 262 262 262 262 262 263 263 263 262 262 263 263 262 262 262 262 262 262 262 263 264 264 264 264 264 264 265 268 270 271 272 273 274 275 276 277 278
344 341 341 342 343 345 347 348 348 348 347 347 346 344 342 341 340 339 338 338 339 341 342 344 346 348 348 348 347 344 342 340 336 330 323 316 309 303 298 294 291 288 285 282 279 275 271 267 264 261 260 261 262 262 262 262 262 263 263 264 264 265 265 265 265 265 266 266 267 267 267 267 268 268 269 269 269 270 271 272 273 273 274 275 277 278 278
338 338 342 345 345 345 346 345 345 345 344 343 342 342 341 340 338 337 337 337 338 339 341 343 345 347 347 348 348 347 345 342 339 336 333 328 321 314 307 302 299 297 294 291 289 286 282 278 274 269 263 260 259 260 261 262 261 261 261 261 261 262 263 263 264 264 265 265 265 265 266 267 268 269 270 270 270 271 271 272 272 272 273 274 275 275 275
337 340 344 345 345 345 345 344 343 343 341 340 340 341 340 338 337 336 336 336 337 339 340 341 343 344 345 347 347 347 346 343 340 338 335 332 329 324 317 311 307 304 301 300 297 295 292 289 285 282 276 269 263 259 259 260 260 260 259 259 258 258 258 259 259 260 261 261 261 262 264 265 265 265 266 267 267 268 268 268 269 270 272 272 271 270 271
340 343 345 344 343 342 343 343 342 340 339 339 339 339 338 336 336 336 336 336 337 338 339 340 340 342 343 344 345 345 344 343 341 339 336 333 331 329 326 321 314 309 305 303 301 299 298 296 293 290 288 284 278 270 263 260 259 259 259 258 257 257 256 256 256 256 256 256 257 258 259 259 260 261 262 263 263 264 264 264 265 266 266 266 265 266 267
343 344 343 342 340 340 342 343 342 340 340 340 340 339 338 336 336 336 336 336 337 339 339 338 338 339 340 341 342 342 342 342 341 339 337 334 331 330 328 325 320 315 310 305 302 300 299 297 296 294 293 291 289 284 277 268 263 261 261 260 258 256 255 254 254 255 255 255 255 254 254 255 256 257 258 258 259 259 259 259 260 260 260 260 261 262 262
341 341 340 338 338 340 343 344 343 343 343 342 342 340 339 337 336 336 336 336 337 338 339 338 337 337 338 339 339 339 340 340 340 338 337 334 331 328 327 326 323 320 316 311 305 302 300 299 297 296 294 293 291 287 284 279 272 267 264 263 262 260 257 255 254 253 254 254 254 254 253 254 254 254 255 255 255 256 256 256 256 256 255 256 258 258 258
337 338 341 340 340 344 348 347 346 347 347 345 344 342 339 338 338 337 336 336 337 337 337 337 337 336 336 336 337 337 337 338 338 336 335 333 330 327 327 325 323 321 319 316 311 306 304 302 302 300 299 296 292 288 283 280 276 271 268 266 266 265 263 260 257 253 251 253 255 255 254 254 254 254 254 254 254 255 255 256 256 256 256 256 257 258 258
335 341 349 351 351 353 354 352 351 351 349 347 345 342 340 340 339 338 337 337 336 336 337 337 336 335 334 334 335 335 335 335 335 334 333 332 330 327 327 325 322 320 320 320 318 315 312 308 306 304 301 299 296 291 285 280 276 273 271 269 268 267 266 264 260 255 251 252 255 256 255 254 254 255 255 255 256 256 256 257 257 258 258 258 258 258 259
344 354 2 4 2 2 360 357 355 354 350 347 345 344 342 341 340 339 338 337 336 336 336 335 334 333 333 332 332 332 332 332 333 333 332 331 330 328 326 323 320 319 320 320 319 318 318 316 313 309 303 299 297 294 290 285 280 276 273 271 269 268 268 266 263 260 255 252 254 257 257 256 255 256 256 257 257 258 258 258 259 259 258 258 258 258 258
9 14 15 12 9 6 2 359 357 355 350 348 347 347 345 342 339 338 338 337 335 335 335 333 332 331 330 329 328 329 329 331 332 332 332 331 330 328 326 322 318 317 317 315 312 312 315 320 322 320 314 305 299 295 292 289 285 280 277 274 272 270 270 269 268 266 262 258 258 260 261 260 258 258 258 257 257 257 257 258 258 257 257 257 256 255 254
24 21 18 13 9 6 2 359 357 355 352 350 349 348 345 342 340 338 337 336 335 334 334 332 330 329 328 328 327 328 329 330 331 332 332 331 330 328 325 321 317 315 315 314 312 311 313 318 323 324 321 314 306 299 294 290 287 284 281 278 276 274 273 273 273 270 267 263 261 261 262 262 260 259 257 256 255 254 254 253 253 253 253 252 251 250 250
25 19 14 9 5 2 359 356 356 355 353 351 351 349 347 344 341 339 337 336 335 334 333 331 329 327 327 327 327 327 329 330 330 330 331 331 329 328 325 320 315 312 313 314 313 312 311 314 318 321 320 316 311 304 297 292 289 285 281 280 278 277 275 275 274 273 271 267 263 260 259 259 259 258 256 254 253 252 251 250 248 247 246 246 245 246 247
18 12 8 3 359 356 355 354 354 354 354 353 352 350 347 345 342 339 338 336 334 333 332 331 329 328 327 328 327 328 329 330 329 330 331 331 330 328 326 322 317 313 311 312 312 312 311 311 315 318 318 317 314 308 301 295 291 287 283 279 277 276 275 274 272 271 270 269 266 262 259 256 254 254 254 253 252 249 247 246 244 243 242 241 242 243 244
6 3 360 357 355 352 351 351 351 352 353 353 353 350 347 345 342 340 338 336 334 332 331 330 329 329 329 328 327 327 328 329 329 329 330 330 329 327 325 322 318 314 312 310 310 310 310 310 311 315 317 318 316 313 307 300 295 291 287 282 278 276 275 275 273 270 268 267 266 264 260 255 251 249 249 250 248 246 244 242 240 239 238 238 239 241 243
353 352 351 350 350 348 348 348 348 350 351 353 352 349 347 344 342 339 337 335 333 331 331 330 329 329 329 327 325 325 327 328 328 328 328 328 327 327 325 322 317 313 311 311 311 310 308 308 309 311 315 317 318 316 313 307 301 295 290 287 283 279 277 277 276 274 270 268 265 264 262 259 254 248 245 244 244 243 240 237 235 234 235 236 238 241 244
341 341 341 341 342 343 343 344 345 347 349 350 350 347 344 342 340 338 336 334 332 331 330 330 329 328 326 325 324 325 327 327 326 326 326 326 326 325 324 320 315 311 311 313 313 310 306 305 307 309 312 314 318 320 320 317 311 304 297 292 289 286 284 282 280 276 273 269 265 262 259 258 256 252 246 241 239 238 236 235 234 235 236 237 239 242 244
332 332 331 332 335 337 338 341 343 345 346 347 345 343 341 340 338 336 335 333 332 331 331 330 328 326 325 324 324 325 326 325 324 324 324 325 325 324 322 318 312 309 310 313 314 311 307 304 304 304 305 307 311 316 321 323 323 317 310 302 295 292 289 287 285 281 276 270 266 263 259 255 253 252 248 242 237 235 235 237 238 239 239 240 242 243 245
325 324 324 326 329 332 336 339 340 341 342 342 341 339 337 337 336 335 333 332 331 331 331 329 327 325 324 324 323 323 324 324 323 322 323 323 323 322 320 317 312 309 309 311 313 313 311 307 302 297 296 297 300 304 310 316 321 323 322 317 309 301 295 291 289 286 281 274 268 263 260 256 252 251 249 243 237 234 238 242 243 242 241 241 241 242 244
319 320 322 323 325 329 334 337 337 337 337 337 337 337 336 335 334 333 331 330 330 331 330 329 327 325 324 323 322 322 322 322 322 321 322 322 321 320 318 315 312 309 307 307 308 309 310 309 305 297 291 289 289 291 296 302 308 313 318 320 319 314 307 299 293 288 283 277 269 263 261 259 255 251 249 245 238 236 241 247 247 244 242 241 240 241 243
315 316 318 320 322 326 331 333 334 334 333 334 335 336 335 334 333 331 329 328 329 330 329 328 327 325 323 321 322 322 321 321 320 321 321 321 320 319 318 317 314 310 305 300 299 301 304 306 306 302 295 289 285 284 285 288 292 298 303 308 313 316 316 313 308 301 293 283 271 262 259 259 256 251 251 250 245 242 245 250 250 245 242 240 240 240 241
312 313 315 318 321 325 328 329 331 332 333 332 333 333 334 333 333 331 328 327 328 328 327 326 326 325 322 320 321 322 321 320 319 320 320 320 319 318 318 318 316 312 305 298 295 295 297 298 299 299 297 292 287 284 283 282 282 284 287 292 299 305 309 312 314 313 308 299 284 268 260 257 254 252 251 250 248 246 247 249 248 244 240 239 239 239 240
Height
5682 5684 5685 5685 5686 5688 5690 5691 5693 5696 5697 5699 5701 5702 5702 5704 5705 5705 5706 5708 5709 5710 5711 5712 5713 5714 5715 5716 5718 5718 5718 5718 5719 5718 5718 5718 5718 5718 5718 5718 5718 5718 5718 5718 5718 5719 5719 5720 5721 5722 5723 5723 5725 5725 5725 5726 5726 5726 5726 5725 5725 5726 5727 5727 5728 5729 5730 5732 5733 5734 5736 5737 5739 5739 5740 5741 5742 5744 5745 5747 5748 5749 5750 5752 5754 5756 5758
5679 5680 5681 5682 5684 5686 5688 5689 5690 5693 5695 5697 5698 5699 5700 5702 5702 5703 5703 5705 5706 5707 5708 5709 5710 5712 5713 5714 5715 5716 5716 5716 5716 5716 5716 5716 5716 5716 5716 5716 5716 5716 5715 5716 5716 5716 5716 5717 5718 5719 5720 5721 5722 5723 5723 5722 5722 5722 5722 5722 5722 5722 5723 5724 5724 5725 5727 5728 5729 5730 5733 5734 5735 5735 5736 5738 5739 5741 5742 5743 5744 5746 5747 5750 5753 5754 5755
5675 5677 5678 5679 5681 5683 5685 5686 5688 5690 5692 5694 5695 5696 5698 5699 5700 5701 5701 5702 5703 5704 5705 5706 5707 5709 5711 5712 5712 5713 5713 5714 5714 5714 5714 5715 5715 5715 5714 5714 5714 5714 5713 5714 5714 5714 5714 5714 5715 5716 5717 5718 5718 5719 5719 5719 5718 5718 5718 5718 5718 5719 5719 5720 5720 5721 5722 5724 5726 5727 5728 5730 5731 5731 5732 5735 5736 5737 5738 5739 5741 5743 5745 5748 5750 5750 5751
5672 5674 5675 5676 5678 5679 5681 5683 5685 5687 5689 5691 5691 5692 5693 5695 5696 5698 5698 5699 5701 5701 5702 5703 5704 5705 5707 5708 5709 5710 5710 5711 5712 5712 5712 5712 5713 5713 5713 5712 5712 5712 5711 5711 5712 5712 5712 5712 5712 5713 5714 5714 5715 5715 5715 5715 5715 5714 5714 5714 5715 5716 5716 5715 5715 5717 5718 5719 5721 5723 5724 5726 5728 5729 5730 5732 5733 5734 5734 5735 5738 5741 5743 5745 5746 5746 5747
5669 5671 5672 5674 5675 5676 5678 5679 5681 5684 5686 5687 5687 5688 5689 5691 5692 5694 5695 5696 5698 5699 5699 5700 5701 5702 5703 5704 5705 5706 5707 5708 5709 5710 5710 5710 5710 5710 5710 5710 5710 5710 5709 5709 5709 5710 5710 5710 5710 5711 5711 5711 5711 5711 5712 5712 5711 5711 5711 5711 5711 5712 5713 5712 5711 5712 5714 5715 5717 5719 5721 5723 5725 5726 5727 5728 5730 5730 5731 5732 5735 5738 5739 5741 5742 5743 5744
5667 5668 5669 5671 5672 5674 5675 5676 5678 5681 5683 5684 5684 5685 5686 5688 5689 5690 5691 5693 5694 5695 5695 5696 5698 5699 5699 5701 5702 5703 5704 5705 5706 5706 5707 5707 5708 5708 5708 5708 5708 5708 5707 5707 5707 5707 5708 5708 5708 5708 5709 5709 5708 5708 5708 5708 5708 5707 5707 5708 5708 5709 5710 5710 5709 5709 5710 5712 5715 5717 5718 5720 5722 5723 5724 5725 5726 5727 5728 5730 5732 5734 5736 5737 5739 5740 5741
5664 5665 5667 5668 5669 5671 5672 5674 5675 5678 5680 5681 5682 5683 5684 5685 5686 5687 5688 5689 5690 5691 5692 5693 5695 5696 5697 5698 5699 5700 5700 5701 5702 5703 5704 5704 5705 5705 5705 5705 5705 5705 5705 5705 5705 5705 5705 5705 5705 5706 5706 5706 5706 5705 5705 5705 5705 5704 5704 5704 5705 5705 5706 5707 5708 5708 5708 5710 5712 5714 5716 5717 5718 5719 5721 5722 5723 5723 5725 5727 5729 5731 5733 5734 5735 5737 5738
5662 5663 5664 5666 5667 5668 5669 5671 5672 5674 5676 5678 5679 5680 5681 5683 5683 5684 5685 5686 5687 5688 5689 5690 5691 5693 5694 5695 5696 5697 5697 5698 5699 5699 5700 5701 5701 5701 5702 5702 5702 5702 5703 5703 5702 5702 5702 5703 5703 5703 5703 5704 5703 5703 5702 5702 5702 5702 5701 5701 5701 5702 5703 5704 5705 5706 5706 5708 5709 5711 5713 5715 5715 5717 5718 5719 5719 5720 5722 5724 5726 5728 5729 5731 5732 5733 5734
5659 5660 5662 5663 5664 5665 5666 5668 5669 5671 5673 5675 5676 5677 5678 5679 5680 5681 5682 5683 5684 5685 5686 5686 5687 5689 5690 5692 5693 5693 5694 5695 5696 5696 5697 5697 5698 5698 5698 5699 5699 5699 5700 5700 5699 5699 5699 5700 5700 5700 5701 5701 5701 5700 5699 5699 5700 5699 5698 5698 5699 5699 5700 5701 5702 5703 5704 5705 5707 5708 5710 5711 5712 5713 5714 5716 5717 5717 5719 5720 5722 5724 5726 5727 5729 5730 5731
5656 5657 5659 5660 5662 5663 5664 5666 5667 5668 5670 5671 5672 5674 5675 5676 5677 5678 5679 5680 5681 5682 5683 5683 5684 5685 5686 5688 5689 5690 5691 5692 5692 5693 5693 5694 5694 5695 5695 5696 5696 5696 5696 5696 5696 5696 5696 5696 5697 5697 5698 5698 5698 5698 5697 5697 5697 5696 5696 5696 5696 5696 5697 5698 5700 5701 5702 5703 5704 5705 5706 5708 5709 5710 5712 5713 5714 5715 5716 5718 5719 5721 5723 5724 5725 5727 5729
5653 5654 5656 5658 5659 5660 5662 5663 5664 5665 5667 5668 5669 5670 5671 5672 5673 5674 5675 5676 5677 5678 5679 5680 5681 5681 5682 5683 5685 5686 5687 5688 5689 5689 5690 5690 5691 5691 5691 5692 5692 5692 5692 5692 5693 5693 5693 5693 5693 5694 5694 5695 5695 5695 5695 5695 5694 5694 5694 5694 5693 5693 5693 5695 5696 5697 5699 5700 5701 5701 5703 5704 5706 5707 5709 5710 5711 5712 5713 5714 5716 5718 5719 5721 5722 5724 5726
5651 5652 5654 5656 5657 5658 5659 5661 5661 5662 5664 5665 5666 5667 5668 5669 5670 5671 5672 5672 5673 5674 5676 5677 5677 5678 5679 5679 5680 5681 5682 5683 5684 5685 5685 5686 5686 5687 5687 5687 5688 5688 5688 5688 5689 5689 5690 5689 5690 5690 5691 5691 5692 5692 5693 5693 5692 5692 5691 5691 5691 5691 5691 5691 5692 5694 5695 5697 5698 5698 5699 5700 5702 5704 5705 5707 5708 5709 5710 5711 5712 5715 5716 5718 5719 5721 5722
5649 5651 5652 5653 5655 5656 5658 5659 5659 5660 5661 5662 5663 5664 5665 5667 5668 5668 5669 5670 5670 5671 5672 5673 5673 5674 5675 5675 5676 5676 5677 5678 5679 5680 5681 5681 5682 5683 5683 5683 5683 5684 5684 5684 5685 5685 5686 5686 5686 5686 5687 5688 5689 5689 5689 5689 5690 5690 5689 5689 5689 5690 5690 5690 5690 5692 5693 5695 5696 5696 5696 5697 5698 5700 5702 5703 5705 5707 5707 5708 5709 5711 5713 5714 5715 5717 5718
5647 5648 5649 5651 5652 5654 5656 5657 5658 5659 5660 5660 5661 5662 5663 5664 5665 5666 5666 5667 5668 5669 5669 5670 5670 5671 5671 5671 5672 5672 5673 5674 5674 5675 5676 5677 5678 5678 5679 5679 5679 5679 5680 5680 5680 5681 5682 5682 5683 5683 5683 5684 5685 5685 5685 5686 5687 5687 5687 5687 5687 5688 5688 5688 5689 5690 5691 5692 5693 5694 5694 5695 5696 5697 5699 5700 5701 5703 5703 5704 5706 5707 5708 5710 5711 5712 5713
5644 5646 5647 5649 5650 5652 5654 5655 5656 5657 5658 5659 5659 5660 5661 5662 5663 5664 5664 5665 5666 5666 5667 5667 5668 5668 5668 5668 5669 5669 5669 5670 5670 5671 5672 5673 5674 5674 5675 5675 5675 5676 5676 5676 5676 5676 5677 5678 5679 5679 5679 5680 5681 5682 5682 5682 5683 5683 5684 5684 5685 5685 5686 5687 5687 5688 5688 5689 5690 5691 5692 5693 5694 5695 5696 5696 5697 5698 5699 5700 5701 5702 5704 5705 5706 5707 5709
5642 5643 5645 5646 5648 5650 5652 5653 5654 5655 5656 5657 5658 5659 5660 5660 5661 5662 5662 5663 5663 5664 5664 5665 5665 5665 5666 5666 5666 5666 5666 5666 5667 5667 5668 5669 5670 5670 5671 5671 5671 5671 5671 5672 5672 5672 5673 5674 5674 5675 5675 5676 5677 5678 5679 5679 5679 5680 5680 5680 5681 5682 5683 5684 5684 5685 5686 5686 5687 5688 5689 5690 5691 5691 5692 5692 5693 5694 5695 5696 5697 5698 5700 5702 5703 5704 5706
5639 5640 5642 5644 5646 5649 5650 5651 5652 5652 5653 5655 5656 5658 5658 5659 5659 5660 5660 5661 5661 5661 5662 5662 5663 5663 5663 5663 5663 5663 5663 5664 5664 5664 5665 5665 5666 5666 5667 5667 5667 5667 5667 5667 5668 5668 5668 5669 5670 5671 5671 5672 5672 5673 5674 5675 5676 5676 5676 5677 5677 5678 5679 5680 5681 5681 5682 5683 5684 5684 5685 5686 5687 5688 5689 5690 5691 5691 5692 5693 5693 5694 5696 5699 5700 5702 5703
5637 5638 5640 5642 5645 5647 5649 5649 5649 5650 5652 5653 5655 5656 5656 5657 5657 5658 5658 5658 5659 5659 5659 5659 5660 5660 5660 5660 5660 5660 5661 5661 5661 5661 5662 5662 5662 5662 5663 5663 5663 5663 5663 5663 5663 5663 5663 5664 5665 5666 5667 5668 5668 5669 5670 5671 5671 5672 5672 5673 5674 5674 5675 5676 5677 5678 5678 5679 5680 5681 5682 5683 5684 5685 5687 5687 5688 5689 5689 5689 5690 5691 5693 5695 5697 5699 5699
5637 5638 5639 5641 5643 5645 5647 5647 5648 5649 5651 5652 5653 5654 5655 5655 5655 5656 5656 5656 5656 5657 5657 5657 5657 5657 5657 5657 5657 5657 5658 5658 5658 5658 5658 5658 5659 5659 5659 5659 5659 5658 5659 5659 5659 5659 5659 5659 5660 5661 5662 5663 5664 5665 5665 5666 5667 5668 5669 5669 5670 5671 5671 5672 5673 5674 5675 5676 5677 5678 5680 5681 5682 5682 5684 5685 5685 5686 5686 5687 5688 5689 5690 5692 5693 5694 5695
5637 5637 5639 5641 5643 5644 5645 5646 5647 5649 5650 5652 5653 5653 5654 5654 5654 5654 5654 5654 5654 5654 5654 5654 5654 5654 5654 5654 5654 5654 5654 5654 5654 5655 5655 5655 5655 5655 5655 5655 5655 5655 5655 5654 5655 5655 5655 5655 5655 5656 5657 5658 5659 5660 5661 5662 5663 5664 5665 5666 5667 5667 5668 5669 5669 5670 5672 5673 5674 5675 5676 5678 5679 5679 5680 5681 5681 5682 5683 5684 5684 5685 5686 5687 5688 5689 5690
5637 5638 5639 5641 5642 5644 5645 5646 5647 5649 5650 5651 5651 5652 5652 5652 5652 5652 5652 5652 5652 5652 5651 5651 5651 5651 5651 5651 5651 5651 5650 5650 5650 5650 5651 5650 5650 5650 5650 5650 5650 5651 5651 5650 5651 5651 5651 5651 5651 5652 5653 5654 5655 5656 5657 5658 5660 5661 5661 5662 5663 5664 5665 5666 5666 5667 5668 5670 5671 5672 5673 5674 5675 5675 5676 5676 5676 5677 5678 5679 5680 5681 5681 5683 5684 5684 5685
5638 5639 5640 5641 5642 5644 5645 5646 5647 5648 5649 5650 5650 5650 5650 5651 5651 5651 5650 5650 5650 5649 5648 5648 5647 5647 5646 5646 5647 5646 5646 5646 5646 5646 5646 5646 5645 5645 5645 5645 5646 5646 5646 5646 5646 5646 5646 5647 5647 5648 5649 5650 5651 5652 5653 5655 5655 5656 5657 5657 5659 5660 5661 5662 5662 5663 5664 5665 5666 5668 5669 5669 5669 5670 5671 5671 5672 5672 5673 5674 5675 5675 5676 5677 5678 5679 5679
5640 5640 5641 5642 5643 5644 5645 5646 5647 5648 5648 5649 5649 5649 5649 5649 5649 5649 5648 5647 5647 5646 5645 5644 5643 5642 5641 5641 5642 5641 5641 5641 5641 5641 5641 5640 5640 5640 5640 5640 5640 5640 5641 5641 5641 5641 5642 5642 5643 5643 5644 5645 5646 5648 5649 5650 5651 5651 5652 5652 5653 5655 5656 5657 5658 5658 5659 5660 5661 5662 5663 5664 5665 5666 5666 5667 5667 5667 5668 5668 5669 5670 5671 5672 5672 5673 5673
5641 5641 5642 5643 5644 5645 5646 5646 5647 5648 5648 5649 5649 5649 5648 5648 5648 5647 5646 5645 5644 5642 5641 5639 5638 5637 5635 5635 5635 5635 5634 5634 5634 5634 5634 5634 5634 5634 5634 5635 5635 5635 5635 5636 5636 5636 5637 5637 5638 5638 5639 5640 5641 5643 5644 5645 5645 5646 5647 5647 5648 5649 5650 5651 5653 5654 5655 5655 5656 5657 5657 5658 5659 5660 5661 5662 5663 5663 5663 5663 5664 5665 5666 5666 5667 5667 5667
5641 5642 5643 5644 5644 5645 5646 5647 5647 5648 5648 5648 5648 5648 5648 5647 5646 5645 5644 5643 5642 5640 5638 5636 5634 5632 5631 5630 5629 5628 5628 5627 5628 5628 5627 5627 5627 5628 5628 5629 5629 5630 5630 5631 5631 5631 5631 5632 5632 5633 5634 5635 5636 5637 5638 5638 5639 5640 5641 5642 5643 5644 5645 5645 5647 5648 5649 5650 5651 5651 5652 5653 5654 5654 5655 5656 5657 5658 5658 5659 5660 5660 5661 5661 5661 5661 5662
5642 5643 5643 5644 5645 5645 5645 5646 5646 5646 5646 5646 5646 5645 5645 5644 5643 5642 5641 5640 5639 5637 5635 5633 5631 5629 5627 5625 5624 5623 5622 5621 5621 5622 5621 5620 5621 5622 5622 5622 5623 5623 5624 5625 5625 5625 5626 5626 5627 5628 5629 5629 5630 5631 5632 5632 5633 5634 5635 5636 5637 5638 5638 5639 5641 5642 5643 5644 5645 5646 5647 5648 5648 5648 5649 5651 5652 5653 5653 5654 5654 5655 5655 5655 5655 5655 5655
5642 5643 5643 5644 5644 5644 5644 5644 5644 5644 5643 5643 5643 5642 5641 5640 5640 5639 5638 5636 5635 5633 5632 5630 5628 5625 5623 5621 5620 5619 5618 5616 5616 5616 5615 5614 5615 5615 5615 5616 5617 5617 5618 5618 5618 5619 5620 5620 5621 5622 5623 5623 5624 5625 5626 5626 5627 5628 5629 5630 5631 5631 5632 5634 5636 5636 5636 5637 5639 5640 5640 5641 5642 5643 5643 5644 5646 5647 5647 5647 5648 5648 5648 5648 5648 5648 5649
5641 5642 5642 5642 5643 5643 5643 5643 5643 5642 5642 5641 5641 5640 5639 5638 5637 5636 5635 5634 5632 5631 5629 5627 5625 5623 5621 5619 5617 5615 5614 5613 5612 5611 5610 5610 5610 5609 5609 5610 5610 5611 5611 5612 5612 5613 5613 5614 5614 5615 5616 5617 5618 5618 5619 5620 5621 5622 5623 5624 5625 5625 5627 5629 5630 5630 5630 5631 5632 5633 5634 5635 5637 5637 5636 5637 5639 5640 5640 5641 5641 5641 5642 5641 5640 5641 5643
5641 5641 5641 5641 5641 5641 5642 5641 5641 5641 5640 5640 5639 5638 5637 5636 5636 5635 5634 5632 5631 5629 5627 5625 5623 5621 5619 5617 5615 5613 5612 5610 5608 5607 5606 5606 5605 5605 5604 5604 5604 5605 5605 5605 5606 5606 5607 5607 5608 5609 5609 5610 5611 5612 5613 5614 5614 5616 5617 5618 5618 5619 5621 5622 5624 5624 5625 5625 5626 5627 5628 5629 5630 5630 5630 5631 5633 5634 5633 5634 5635 5635 5634 5634 5633 5635 5637
5641 5641 5641 5641 5641 5640 5640 5639 5639 5638 5637 5636 5636 5635 5635 5634 5633 5632 5631 5630 5629 5627 5626 5624 5622 5620 5618 5616 5613 5611 5609 5608 5606 5604 5603 5602 5602 5601 5600 5600 5599 5599 5599 5599 5600 5600 5600 5601 5602 5602 5603 5604 5605 5606 5606 5607 5607 5609 5610 5611 5613 5614 5615 5616 5617 5618 5618 5619 5621 5621 5622 5622 5623 5623 5623 5625 5627 5627 5627 5628 5629 5629 5628 5627 5627 5629 5632
5640 5639 5639 5639 5639 5638 5638 5637 5636 5636 5635 5635 5634 5633 5633 5632 5632 5631 5630 5629 5628 5626 5625 5623 5621 5619 5617 5615 5612 5610 5608 5606 5604 5602 5601 5599 5599 5598 5597 5596 5595 5595 5594 5594 5594 5594 5594 5595 5596 5596 5596 5597 5598 5599 5600 5601 5601 5602 5604 5605 5606 5607 5608 5609 5610 5611 5611 5614 5616 5616 5616 5616 5616 5616 5617 5619 5620 5620 5620 5621 5623 5623 5622 5621 5622 5623 5625
5638 5638 5638 5637 5637 5636 5636 5636 5635 5635 5634 5634 5634 5633 5632 5631 5630 5630 5628 5627 5626 5625 5623 5622 5620 5617 5615 5613 5611 5609 5607 5605 5603 5601 5599 5597 5596 5595 5594 5593 5592 5591 5590 5589 5589 5588 5588 5589 5589 5590 5590 5590 5591 5592 5593 5594 5595 5597 5598 5599 5599 5600 5600 5602 5603 5604 5605 5608 5609 5608 5609 5610 5610 5610 5612 5614 5614 5614 5615 5615 5617 5617 5616 5616 5617 5618 5618
5637 5637 5636 5636 5636 5635 5635 5635 5634 5634 5634 5633 5633 5632 5631 5630 5629 5628 5627 5626 5624 5623 5621 5620 5618 5616 5614 5611 5609 5607 5605 5603 5601 5599 5597 5595 5594 5592 5591 5590 5589 5588 5587 5586 5584 5584 5583 5584 5584 5584 5584 5584 5585 5585 5586 5587 5588 5590 5591 5592 5592 5593 5594 5595 5596 5597 5599 5601 5600 5600 5601 5603 5604 5605 5606 5608 5608 5608 5609 5609 5610 5611 5611 5612 5612 5612 5612
5636 5635 5635 5635 5634 5634 5634 5634 5633 5633 5633 5632 5632 5631 5630 5629 5628 5627 5626 5624 5623 5621 5619 5618 5616 5614 5612 5609 5607 5605 5603 5601 5599 5597 5595 5593 5592 5590 5589 5587 5586 5585 5583 5582 5581 5580 5580 5579 5579 5579 5578 5579 5579 5579 5580 5580 5581 5582 5584 5585 5585 5586 5587 5587 5589 5590 5592 5593 5593 5593 5595 5596 5597 5598 5600 5601 5602 5602 5602 5603 5604 5604 5605 5606 5605 5605 5606
5635 5635 5634 5634 5634 5633 5633 5633 5632 5632 5631 5631 5630 5629 5629 5627 5626 5625 5624 5622 5621 5620 5618 5616 5614 5612 5610 5608 5606 5604 5602 5600 5597 5595 5593 5591 5590 5588 5586 5585 5584 5582 5581 5579 5578 5578 5577 5576 5575 5574 5574 5574 5574 5574 5574 5575 5575 5575 5576 5577 5578 5578 5579 5580 5582 5584 5585 5586 5587 5587 5588 5589 5590 5591 5593 5594 5595 5596 5596 5597 5598 5599 5599 5599 5598 5599 5600
5634 5634 5633 5633 5633 5632 5632 5632 5631 5631 5630 5629 5629 5628 5627 5626 5625 5623 5622 5621 5619 5618 5616 5614 5612 5610 5608 5606 5604 5602 5600 5598 5596 5594 5592 5589 5588 5586 5584 5582 5581 5580 5579 5577 5575 5575 5574 5573 5572 5571 5571 5570 5570 5570 5570 5570 5570 5570 5570 5570 5571 5571 5572 5573 5575 5577 5578 5579 5580 5580 5581 5582 5584 5586 5587 5588 5589 5589 5590 5591 5592 5594 5593 5593 5592 5594 5595
5633 5633 5633 5632 5632 5631 5631 5630 5630 5629 5629 5628 5627 5626 5625 5624 5623 5621 5620 5619 5617 5616 5614 5612 5610 5608 5606 5604 5602 5600 5598 5596 5594 5591 5589 5588 5585 5584 5582 5580 5578 5577 5576 5574 5573 5572 5571 5570 5569 5568 5567 5567 5566 5566 5566 5566 5566 5566 5566 5565 5565 5565 5566 5568 5570 5572 5572 5572 5572 5573 5574 5577 5578 5580 5581 5582 5583 5584 5584 5585 5587 5588 5588 5588 5588 5589 5590
5633 5632 5632 5632 5631 5630 5630 5629 5629 5628 5627 5626 5625 5624 5623 5622 5621 5620 5618 5617 5616 5614 5612 5611 5608 5606 5604 5602 5600 5598 5596 5594 5592 5589 5587 5586 5584 5582 5580 5579 5576 5574 5573 5572 5570 5569 5568 5567 5566 5565 5565 5564 5563 5563 5563 5562 5562 5562 5562 5562 5561 5561 5562 5563 5564 5566 5567 5566 5565 5566 5568 5571 5572 5573 5575 5576 5577 5578 5578 5579 5581 5582 5582 5582 5583 5583 5584
5632 5631 5631 5631 5630 5629 5629 5628 5627 5627 5626 5625 5624 5623 5622 5621 5619 5618 5617 5615 5614 5612 5611 5609 5607 5605 5603 5600 5598 5596 5594 5591 5590 5588 5586 5584 5582 5580 5579 5577 5575 5573 5571 5570 5568 5567 5566 5565 5564 5563 5562 5561 5560 5560 5559 5559 5559 5558 5558 5558 5558 5558 5558 5558 5559 5561 5562 5562 5561 5561 5563 5565 5566 5567 5569 5570 5571 5572 5573 5574 5575 5575 5576 5577 5577 5578 5578
5631 5630 5630 5629 5629 5628 5628 5627 5626 5625 5625 5624 5623 5622 5620 5619 5618 5617 5615 5614 5612 5610 5609 5607 5605 5604 5601 5599 5597 5595 5592 5590 5588 5586 5584 5582 5580 5578 5577 5575 5573 5571 5569 5568 5567 5565 5564 5563 5562 5561 5560 5558 5557 5557 5556 5556 5555 5555 5555 5555 5555 5555 5554 5554 5555 5556 5558 5559 5558 5557 5559 5560 5561 5562 5564 5565 5566 5567 5568 5568 5569 5570 5571 5572 5573 5573 5574
5630 5629 5629 5628 5628 5627 5627 5626 5625 5625 5624 5623 5622 5620 5619 5618 5616 5615 5614 5612 5611 5609 5607 5605 5603 5601 5599 5597 5595 5593 5591 5589 5587 5585 5582 5580 5578 5576 5574 5573 5571 5569 5568 5566 5565 5564 5562 5561 5559 5558 5557 5556 5555 5554 5553 5553 5552 5552 5552 5552 5552 5551 5551 5551 5551 5552 5553 5554 5555 5554 5555 5556 5558 5559 5560 5561 5562 5562 5563 5564 5565 5566 5567 5568 5568 5569 5570
5629 5628 5628 5628 5627 5627 5626 5625 5625 5624 5623 5621 5620 5619 5618 5616 5615 5613 5612 5610 5609 5607 5605 5603 5601 5599 5597 5595 5593 5591 5589 5587 5585 5583 5581 5578 5576 5574 5572 5570 5569 5568 5566 5564 5562 5561 5560 5558 5557 5555 5554 5552 5552 5551 5550 5550 5549 5549 5548 5548 5548 5548 5548 5548 5548 5548 5549 5550 5551 5552 5552 5553 5554 5555 5556 5557 5557 5558 5559 5560 5561 5562 5563 5564 5564 5565 5566
5628 5628 5627 5627 5626 5626 5625 5624 5624 5623 5622 5620 5619 5618 5616 5615 5614 5612 5610 5609 5607 5605 5603 5602 5599 5597 5595 5593 5591 5588 5586 5584 5582 5580 5578 5576 5574 5572 5570 5569 5567 5565 5564 5562 5560 5558 5557 5556 5555 5554 5552 5550 5549 5548 5547 5547 5546 5546 5545 5545 5545 5545 5545 5545 5544 5544 5545 5546 5547 5548 5549 5550 5550 5551 5552 5553 5554 5554 5555 5556 5557 5558 5559 5560 5561 5561 5562
5627 5627 5626 5626 5625 5625 5624 5623 5622 5621 5620 5619 5618 5616 5615 5613 5612 5610 5609 5607 5605 5603 5601 5599 5597 5595 5593 5591 5589 5586 5584 5582 5579 5577 5575 5573 5571 5569 5567 5566 5564 5563 5561 5559 5558 5556 5555 5554 5553 5552 5550 5548 5547 5546 5545 5544 5543 5543 5542 5542 5542 5541 5541 5541 5541 5541 5541 5541 5542 5544 5545 5546 5547 5547 5548 5549 5550 5551 5552 5552 5553 5554 5555 5556 5557 5557 5558
5626 5626 5625 5625 5624 5623 5622 5622 5621 5620 5619 5618 5616 5615 5613 5612 5610 5608 5607 5605 5603 5601 5599 5597 5595 5593 5591 5589 5586 5584 5582 5580 5577 5575 5572 5570 5568 5566 5564 5562 5560 5559 5558 5557 5555 5554 5553 5551 5550 5549 5548 5546 5545 5543 5542 5541 5540 5540 5539 5539 5539 5538 5538 5538 5538 5538 5538 5538 5538 5539 5541 5542 5543 5544 5545 5545 5546 5547 5548 5549 5550 5551 5551 5552 5553 5554 5554
5625 5624 5624 5623 5623 5622 5621 5620 5619 5618 5617 5616 5615 5613 5612 5610 5608 5606 5605 5603 5601 5599 5597 5595 5593 5591 5589 5586 5584 5581 5580 5578 5575 5573 5570 5568 5565 5563 5561 5559 5558 5556 5555 5554 5553 5552 5550 5549 5548 5547 5546 5544 5543 5541 5540 5539 5538 5537 5537 5536 5536 5536 5536 5535 5535 5535 5534 5535 5535 5536 5536 5538 5539 5540 5541 5542 5542 5543 5544 5545 5546 5547 5548 5549 5550 5550 5551
5623 5623 5622 5622 5621 5620 5619 5618 5617 5616 5615 5614 5613 5611 5610 5608 5606 5604 5602 5600 5598 5596 5594 5592 5590 5588 5586 5584 5581 5579 5577 5575 5572 5570 5568 5566 5563 5561 5559 5557 5556 5554 5553 5552 5551 5549 5548 5547 5546 5545 5544 5542 5541 5540 5538 5537 5536 5535 5534 5534 5533 5533 5533 5533 5532 5532 5531 5531 5532 5532 5533 5534 5535 5536 5537 5538 5539 5540 5541 5542 5543 5544 5544 5545 5546 5547 5548
5622 5621 5621 5620 5619 5618 5617 5616 5615 5614 5613 5612 5611 5609 5608 5606 5604 5602 5600 5598 5596 5594 5592 5590 5587 5585 5583 5581 5578 5577 5575 5572 5569 5567 5565 5563 5561 5559 5557 5555 5553 5551 5550 5549 5548 5547 5545 5544 5543 5542 5541 5540 5539 5538 5537 5536 5534 5533 5532 5531 5531 5530 5530 5530 5529 5529 5529 5529 5529 5529 5530 5531 5532 5533 5534 5535 5536 5537 5538 5539 5540 5540 5541 5542 5543 5544 5545
5620 5619 5619 5618 5617 5616 5616 5615 5614 5612 5611 5610 5609 5607 5605 5604 5602 5600 5598 5595 5593 5591 5589 5587 5585 5582 5580 5577 5575 5573 5571 5569 5567 5564 5562 5560 5558 5556 5554 5552 5550 5548 5546 5545 5544 5543 5542 5541 5540 5540 5539 5538 5537 5536 5535 5534 5533 5532 5531 5530 5529 5528 5528 5527 5527 5526 5526 5526 5526 5526 5527 5528 5529 5530 5531 5531 5532 5534 5535 5536 5536 5537 5538 5539 5540 5540 5541
5618 5617 5617 5616 5615 5615 5614 5613 5612 5610 5609 5608 5606 5605 5603 5601 5599 5597 5595 5593 5590 5588 5586 5584 5582 5579 5577 5574 5572 5569 5567 5565 5563 5561 5560 5558 5556 5553 5551 5549 5547 5545 5543 5542 5541 5540 5539 5538 5537 5537 5536 5535 5534 5533 5533 5532 5531 5530 5529 5528 5527 5527 5526 5525 5525 5524 5524 5523 5524 5524 5524 5525 5526 5527 5528 5528 5529 5530 5531 5532 5533 5534 5534 5535 5536 5537 5538
5616 5615 5615 5614 5613 5613 5612 5611 5610 5608 5607 5605 5603 5602 5600 5598 5597 5595 5592 5590 5588 5586 5583 5581 5579 5577 5574 5571 5569 5567 5564 5562 5560 5558 5556 5554 5552 5550 5548 5546 5544 5542 5540 5539 5538 5537 5536 5535 5534 5534 5533 5532 5531 5530 5530 5529 5529 5528 5527 5526 5526 5525 5524 5523 5523 5522 5521 5521 5521 5521 5521 5522 5523 5524 5525 5525 5526 5527 5528 5529 5530 5530 5531 5532 5533 5534 5535
5614 5613 5613 5612 5611 5611 5610 5608 5607 5606 5604 5603 5601 5599 5597 5596 5594 5592 5590 5587 5585 5583 5581 5578 5576 5574 5572 5569 5566 5564 5562 5559 5557 5555 5553 5551 5549 5547 5544 5543 5541 5539 5537 5536 5534 5533 5532 5532 5531 5530 5530 5529 5528 5527 5527 5526 5526 5525 5525 5524 5523 5523 5522 5522 5521 5520 5520 5519 5519 5519 5519 5519 5520 5521 5522 5522 5523 5524 5525 5525 5526 5527 5528 5529 5529 5530 5531